Tracking 29892 objects as of 21-Nov-2024
HD Live streaming from Space Station
objects crossing your sky now

GALAXY 3

Track GALAXY 3 now!
GALAXY 3 is classified as:


NORAD ID: 15308
Int'l Code: 1984-101A
Perigee: 35,906.6 km
Apogee: 35,925.6 km
Inclination: 14.4 °
Period: 1,442.4 minutes
Semi major axis: 42287 km
RCS: 3.7869 m2 (large)
Launch date: September 21, 1984
Source: United States (US)
Launch site: AIR FORCE EASTERN TEST RANGE (AFETR)
Your satellite tracking list
Your tracking list is empty




NASA's NSSDC Master Catalog

Two Line Element Set (TLE):
1 15308U 84101A   24325.69575427  .00000090  00000-0  00000-0 0  9991
2 15308  14.4184 349.3915 0002247   2.1220 176.1693  0.99836921 40753
Source of the keplerian elements: AFSPC